Weather in Palitsy

Russia / Pskov Oblast     58°01′43″N   28°40′03″E
temp.,
°C
wind,
m/s
gust,
m/s
humid.,
%
clouds,
%
prec.,
mm/h
press.,
hPa
HPBL,
m
17 may, tue
tue1700:00+4wnw3117767 0.0 1013318
03:00+5wnw388156 0.0 1013335
06:00+4wnw399498 0.1 1013318
09:00+5nnw4892100 0.3 1013820
12:00+6nw499096 0.6 1014891
15:00+9nnw6757100 0.9 10151411
18:00+9nnw5760100 0.0 10161405
21:00+6n4872100 0.0 10181110
18 may, wed
wed1800:00+6n41079100 0.0 1019735
03:00+5nnw498195 0.0 1020685
06:00+3nnw3108095 0.0 1022416
09:00+8nnw465789 0.0 10221276
12:00+11nw4747100 0.0 10221451
15:00+14wnw58375 0.0 10201618
18:00+15wnw510381 0.0 10181963
21:00+11w6125395 0.0 1018973
19 may, thu
thu1900:00+8w51463100 0.0 1018655
03:00+7w51469100 0.0 1018552
06:00+7wnw31175100 0.0 1018450
09:00+9wnw3465100 0.0 1018561
12:00+14wnw2452100 0.0 10181242
15:00+16wnw344580 0.0 10171669
18:00+14nne246198 0.1 1018335
21:00+10e227337 0.1 101817
20 may, fri
fri2000:00+7ene3970100 0.0 1019229
03:00+5e3957100 0.0 1020261
06:00+4e3959100 0.0 1020275
09:00+8ese4749100 0.0 1020508
12:00+12e4540100 0.0 10191271
15:00+13ene4537100 0.0 10181734
18:00+12ene4645100 0.0 10181359
21:00+7ene23615 0.0 101851
21 may, sat
sat2100:00+5ne412655 0.0 1019361
03:00+3ne311730 0.0 1019304
06:00+3ene310720 0.0 1019294
09:00+9ene47495 0.0 1019779
12:00+13e453493 0.0 10181780
15:00+14e442962 0.0 10172036
18:00+14e443199 0.0 10161850
21:00+8e2256100 0.0 101717